�N����,����,����,����,����,�C��,���x,�~����,�S�V����,�ő�u�ԕ���,,,,,
,,,,,,,,,����,����,����,�N��,,
yyyy/mm/dd,hh:mm:ss,(16),16����,m/s,��,%,mm,KW/�u,(16),16����,m/s,Time,,
2017/6/1,1:00:00,16,�É�,0,9.8,85.8,0,0,6,�쓌,1.4,20,,
2017/6/1,2:00:00,14,�k��,1.1,10.4,90.7,0,0,12,��,3,37,,
2017/6/1,3:00:00,12,��,1.2,10.2,90.6,0.5,0,12,��,3.2,14,,
2017/6/1,4:00:00,16,�É�,0,10.8,92.7,0,0,12,��,2.2,0,,
2017/6/1,5:00:00,14,�k��,1.5,12.5,92.2,0,0.03,13,���k��,4.8,21,,
2017/6/1,6:00:00,16,�É�,0,13.3,91.8,0,0.08,13,���k��,4.3,12,,
2017/6/1,7:00:00,4,��,0.8,17.2,65.5,0,0.35,6,�쓌,1.7,59,,
2017/6/1,8:00:00,5,���쓌,2.5,16.3,61.8,0,0.37,3,���k��,5.3,38,,
2017/6/1,9:00:00,5,���쓌,4.2,14.6,67.6,0,0.44,5,���쓌,7.1,45,,
2017/6/1,10:00:00,3,���k��,2.6,14.2,73.3,0,0.27,4,��,4.8,3,,
2017/6/1,11:00:00,3,���k��,1.6,15.4,71.8,0,0.31,3,���k��,4.9,25,,
2017/6/1,12:00:00,5,���쓌,3.2,12.9,69.2,0,0.27,5,���쓌,4.6,55,,
2017/6/1,13:00:00,16,�É�,0.1,12.4,80.9,0,0.17,4,��,4.4,5,,
2017/6/1,14:00:00,12,��,1.5,12.7,82.8,0,0.08,12,��,2.4,59,,
2017/6/1,15:00:00,16,�É�,0,12.9,89.2,4,0.05,12,��,2.4,28,,
2017/6/1,16:00:00,6,�쓌,1.9,11.7,89.8,6,0.05,5,���쓌,2.9,56,,
2017/6/1,17:00:00,4,��,1.4,11.2,92.8,5,0.02,5,���쓌,3.2,0,,
2017/6/1,18:00:00,16,�É�,0,11,93.3,5.5,0.01,8,��,2.4,29,,
2017/6/1,19:00:00,16,�É�,0,11.1,94.3,2,0.01,9,��쐼,2.5,19,,
2017/6/1,20:00:00,3,���k��,1.6,11,94.9,0,0,3,���k��,3.8,55,,
2017/6/1,21:00:00,2,�k��,2.4,10.6,95.4,1,0,4,��,6.6,36,,
2017/6/1,22:00:00,4,��,1.1,10.7,96.6,5.5,0,3,���k��,2.9,0,,
2017/6/1,23:00:00,1,�k�k��,0.6,10.7,96.9,5,0,2,�k��,2.3,49,,
2017/6/1,0:00:00,16,�É�,0,10.8,97,0,0,2,�k��,1.8,31,,
2017/6/2,1:00:00,3,���k��,2.6,9.8,94.9,0,0,3,���k��,5.1,34,,
2017/6/2,2:00:00,2,�k��,1.4,10.3,96.9,0.5,0,2,�k��,5.1,39,,
2017/6/2,3:00:00,1,�k�k��,1.6,10.7,97.4,0,0,2,�k��,3.4,4,,
2017/6/2,4:00:00,16,�k,0.6,10.7,97.2,1,0,1,�k�k��,2.4,31,,
2017/6/2,5:00:00,3,���k��,2.1,9.9,95.4,2.5,0.01,3,���k��,5.5,41,,
2017/6/2,6:00:00,2,�k��,1.6,10.6,97,2.5,0.03,4,��,2.9,45,,
2017/6/2,7:00:00,1,�k�k��,2.1,10.7,96.8,3.5,0.06,2,�k��,3.9,33,,
2017/6/2,8:00:00,2,�k��,2.8,10.9,95,4.5,0.11,2,�k��,4.7,54,,
2017/6/2,9:00:00,1,�k�k��,2.2,11.2,94.7,1.5,0.09,1,�k�k��,6.2,39,,
2017/6/2,10:00:00,16,�k,2,11.6,94.6,1,0.1,1,�k�k��,5.2,19,,
2017/6/2,11:00:00,1,�k�k��,1.8,12,94.4,2,0.14,1,�k�k��,4.5,45,,
2017/6/2,12:00:00,15,�k�k��,1.7,12.5,93.9,3,0.13,14,�k��,4.7,28,,
2017/6/2,13:00:00,16,�k,1.4,12.6,93.8,4,0.1,1,�k�k��,4.8,32,,
2017/6/2,14:00:00,4,��,4.1,11.2,88.6,4,0.14,3,���k��,6.2,59,,
2017/6/2,15:00:00,16,�k,2.6,12.6,93.9,1,0.11,15,�k�k��,6.2,49,,
2017/6/2,16:00:00,16,�k,2.8,12.7,90.8,0,0.11,15,�k�k��,5.5,48,,
2017/6/2,17:00:00,3,���k��,2.5,11,89.8,0.5,0.06,1,�k�k��,5.2,0,,
2017/6/2,18:00:00,16,�k,2.7,11.7,90,0,0.04,16,�k,7.4,47,,
2017/6/2,19:00:00,16,�k,3.8,10,82.2,0,0.01,15,�k�k��,8.6,14,,
2017/6/2,20:00:00,15,�k�k��,5,9.7,80.9,0,0,15,�k�k��,10.7,33,,
2017/6/2,21:00:00,15,�k�k��,4.2,9,85.4,0.5,0,14,�k��,11.3,35,,
2017/6/2,22:00:00,14,�k��,3.1,8.6,88.2,1.5,0,15,�k�k��,11.6,40,,
2017/6/2,23:00:00,15,�k�k��,3.6,9,88.7,1,0,1,�k�k��,7,51,,
2017/6/2,0:00:00,15,�k�k��,4.4,9.2,85,0.5,0,15,�k�k��,10.6,43,,
2017/6/3,1:00:00,16,�k,4.2,8.8,86.5,0.5,0,15,�k�k��,10.1,0,,
2017/6/3,2:00:00,16,�k,4,8.8,86.8,0,0,15,�k�k��,9.2,35,,
2017/6/3,3:00:00,15,�k�k��,2.3,8,89.8,2.5,0,1,�k�k��,9,11,,
2017/6/3,4:00:00,16,�k,1.4,7.8,92.6,3.5,0,15,�k�k��,4.5,3,,
2017/6/3,5:00:00,15,�k�k��,1.4,8,91.5,0.5,0.03,1,�k�k��,3.8,2,,
2017/6/3,6:00:00,15,�k�k��,1.4,8.3,90.2,0,0.04,15,�k�k��,3.6,5,,
2017/6/3,7:00:00,2,�k��,2,8.1,88.1,0,0.06,15,�k�k��,4,2,,
2017/6/3,8:00:00,1,�k�k��,2.8,8.1,82.8,0,0.09,1,�k�k��,4.7,33,,
2017/6/3,9:00:00,16,�k,1.3,8.9,78.2,0,0.15,1,�k�k��,5.9,6,,
2017/6/3,10:00:00,1,�k�k��,1.5,9.9,74.1,0,0.22,2,�k��,5,16,,
2017/6/3,11:00:00,1,�k�k��,2.9,9.6,71.5,0,0.2,1,�k�k��,5.8,59,,
2017/6/3,12:00:00,15,�k�k��,2.5,9.6,71.7,0,0.19,15,�k�k��,6.5,20,,
2017/6/3,13:00:00,15,�k�k��,2.5,9.6,72.9,0,0.19,16,�k,5.9,0,,
2017/6/3,14:00:00,15,�k�k��,2.5,9.5,72,0,0.17,15,�k�k��,6.4,32,,
2017/6/3,15:00:00,16,�k,3,8.9,76.9,0,0.09,16,�k,5.7,8,,
2017/6/3,16:00:00,16,�k,1.9,8.9,79.2,0,0.08,15,�k�k��,4.1,24,,
2017/6/3,17:00:00,16,�k,1.5,8.3,81.5,0,0.05,2,�k��,5.5,37,,
2017/6/3,18:00:00,16,�k,1.4,7.7,84.5,0,0.03,2,�k��,4.4,24,,
2017/6/3,19:00:00,14,�k��,1.9,6.7,89.5,1,0.01,13,���k��,4.5,44,,
2017/6/3,20:00:00,15,�k�k��,1.2,6.3,92.5,0.5,0,14,�k��,3.7,4,,
2017/6/3,21:00:00,16,�k,1.6,6.1,92.7,1,0,15,�k�k��,3.2,50,,
2017/6/3,22:00:00,14,�k��,1.3,5.8,92.4,1.5,0,16,�k,3.9,6,,
2017/6/3,23:00:00,14,�k��,1.3,5.6,92.7,2,0,14,�k��,3.4,33,,
2017/6/3,0:00:00,14,�k��,1.3,5.6,92.7,1,0,14,�k��,3.2,18,,
2017/6/4,1:00:00,14,�k��,1.7,5.4,92.3,0,0,13,���k��,2.8,13,,
2017/6/4,2:00:00,14,�k��,1.4,5.4,92.1,0,0,14,�k��,3.6,24,,
2017/6/4,3:00:00,14,�k��,1.1,5.4,91.6,0,0,15,�k�k��,3.6,28,,
2017/6/4,4:00:00,14,�k��,1.4,5.5,90.8,0,0,14,�k��,2.7,6,,
2017/6/4,5:00:00,14,�k��,1.6,5.7,88.4,0,0.02,15,�k�k��,3.3,37,,
2017/6/4,6:00:00,15,�k�k��,2.1,6.1,84.4,0,0.05,14,�k��,5.6,17,,
2017/6/4,7:00:00,16,�k,1.8,7.5,83,0,0.17,16,�k,4.3,31,,
2017/6/4,8:00:00,1,�k�k��,3,9.8,71.7,0,0.48,2,�k��,5,52,,
2017/6/4,9:00:00,1,�k�k��,3.6,10,62.8,0,0.61,1,�k�k��,7.1,57,,
2017/6/4,10:00:00,5,���쓌,1.3,9.6,67.2,0,0.53,1,�k�k��,7,0,,
2017/6/4,11:00:00,5,���쓌,3.3,8.3,76.1,0,0.37,5,���쓌,4.7,51,,
2017/6/4,12:00:00,6,�쓌,2,8.7,70.6,0,0.52,4,��,4.4,35,,
2017/6/4,13:00:00,7,��쓌,1.9,8.5,74.1,0,0.47,6,�쓌,3.9,3,,
2017/6/4,14:00:00,6,�쓌,1.4,8.2,78.3,0,0.3,6,�쓌,2.7,1,,
2017/6/4,15:00:00,7,��쓌,1.4,8.6,81.2,0.5,0.28,6,�쓌,2.6,58,,
2017/6/4,16:00:00,7,��쓌,1.4,8.6,85.1,0,0.26,7,��쓌,2.7,31,,
2017/6/4,17:00:00,7,��쓌,1.7,7.6,83,0,0.18,7,��쓌,2.7,41,,
2017/6/4,18:00:00,6,�쓌,0.5,7.2,87.8,0,0.06,5,���쓌,2.8,30,,
2017/6/4,19:00:00,16,�É�,0,7,89.9,0,0.02,9,��쐼,0.8,3,,
2017/6/4,20:00:00,15,�k�k��,1,7,91.3,0.5,0,15,�k�k��,2.3,51,,
2017/6/4,21:00:00,14,�k��,1.2,6.7,90.5,0,0,13,���k��,2.5,59,,
2017/6/4,22:00:00,14,�k��,0.9,6.5,90.8,0,0,1,�k�k��,2.2,6,,
2017/6/4,23:00:00,14,�k��,0.7,6.3,91.1,0,0,14,�k��,17.2,28,,
2017/6/4,0:00:00,13,���k��,0.9,6.1,91,0,0,13,���k��,2.3,27,,
2017/6/5,1:00:00,16,�É�,0,6.1,91.9,0,0,13,���k��,1.9,0,,
2017/6/5,2:00:00,14,�k��,1.2,6,90.1,0,0,5,���쓌,2.5,54,,
2017/6/5,3:00:00,16,�É�,0.2,5.9,90,0,0,13,���k��,2.4,3,,
2017/6/5,4:00:00,16,�É�,0,5.9,90.3,0,0,1,�k�k��,1.7,21,,
2017/6/5,5:00:00,16,�É�,0,6.5,90,0,0.03,15,�k�k��,1.6,1,,
2017/6/5,6:00:00,2,�k��,1.4,7.6,81.4,0,0.14,2,�k��,2.2,54,,
2017/6/5,7:00:00,2,�k��,2.2,7.9,76.6,0,0.26,3,���k��,3.6,34,,
2017/6/5,8:00:00,5,���쓌,2.5,6.8,81.8,0,0.25,6,�쓌,4.1,23,,
2017/6/5,9:00:00,5,���쓌,2.5,6.8,83.3,0,0.24,4,��,4,53,,
2017/6/5,10:00:00,6,�쓌,2.5,7.5,79.8,0,0.39,5,���쓌,3.9,16,,
2017/6/5,11:00:00,7,��쓌,3,7.8,71.1,0,0.57,6,�쓌,5.1,53,,
2017/6/5,12:00:00,8,��,3,9.5,70.2,0,0.81,8,��,5.4,54,,
2017/6/5,13:00:00,8,��,3.8,8.9,70.2,0,0.96,6,�쓌,6.4,30,,
2017/6/5,14:00:00,7,��쓌,4.4,8.5,70.3,0,0.96,7,��쓌,8.2,48,,
2017/6/5,15:00:00,7,��쓌,4.3,8.7,73.8,0,0.78,8,��,8.1,46,,
2017/6/5,16:00:00,7,��쓌,2.7,8,76.6,0,0.55,8,��,7.5,32,,
2017/6/5,17:00:00,7,��쓌,2.8,7.9,75.4,0,0.4,7,��쓌,6.7,13,,
2017/6/5,18:00:00,8,��,2.1,7.1,79.1,0,0.22,7,��쓌,5.4,1,,
2017/6/5,19:00:00,16,�É�,0,5.3,81.2,0,0.04,8,��,3.5,12,,
2017/6/5,20:00:00,2,�k��,1.4,5,87.9,0,0,1,�k�k��,2.1,28,,
2017/6/5,21:00:00,16,�É�,0.1,2.6,88.9,0,0,2,�k��,2.1,29,,
2017/6/5,22:00:00,,,,,,,,,,,,,
2017/6/5,23:00:00,,,,,,,,,,,,,
2017/6/5,0:00:00,14,�k��,1.3,3.9,94,0,0,13,���k��,2,42,,
2017/6/6,1:00:00,16,�É�,0,3.2,94.2,0,0,13,���k��,2.1,2,,
2017/6/6,2:00:00,16,�É�,0,2.8,94.6,0,0,16,�É�,0,0,,
2017/6/6,3:00:00,16,�É�,0,1.7,94.7,0,0,12,��,1.3,42,,
2017/6/6,4:00:00,13,���k��,0.6,1.7,95.2,0,0,13,���k��,1.6,49,,
2017/6/6,5:00:00,16,�É�,0,2.5,95.9,0,0.04,15,�k�k��,1,17,,
2017/6/6,6:00:00,11,���쐼,0.4,4,96.6,0,0.16,12,��,1.6,47,,
2017/6/6,7:00:00,4,��,0.3,5.9,82.6,0,0.34,10,�쐼,6.9,36,,
2017/6/6,8:00:00,7,��쓌,1.4,8.7,66.2,0,0.66,7,��쓌,2.8,35,,
2017/6/6,9:00:00,7,��쓌,2.4,10.3,68.9,0,0.85,7,��쓌,3.7,56,,
2017/6/6,10:00:00,7,��쓌,2.9,10.5,70.2,0,0.99,7,��쓌,5.1,46,,
2017/6/6,11:00:00,7,��쓌,2.7,10.2,69.8,0,1.09,8,��,5.4,14,,
2017/6/6,12:00:00,6,�쓌,2.3,11.6,69.5,0,1.12,7,��쓌,4.5,12,,
2017/6/6,13:00:00,6,�쓌,2.1,12.5,63.6,0,1.07,8,��,3.7,16,,
2017/6/6,14:00:00,5,���쓌,1.9,14.1,59.5,0,0.95,5,���쓌,3.2,42,,
2017/6/6,15:00:00,5,���쓌,2.4,13.6,60.2,0,0.79,5,���쓌,3.6,54,,
2017/6/6,16:00:00,5,���쓌,2.5,13.2,66.3,0,0.62,5,���쓌,3.7,37,,
2017/6/6,17:00:00,5,���쓌,2.4,11.2,72.6,0,0.44,5,���쓌,4.1,12,,
2017/6/6,18:00:00,5,���쓌,1.4,10.4,74.6,0,0.21,4,��,2.6,0,,
2017/6/6,19:00:00,4,��,0.7,8.4,76.4,0,0.06,4,��,2.6,8,,
2017/6/6,20:00:00,16,�É�,0,5.5,84,0,0,4,��,1.2,16,,
2017/6/6,21:00:00,16,�É�,0,4,86.7,0,0,16,�É�,0,0,,
2017/6/6,22:00:00,16,�É�,0,2.6,88.1,0,0,16,�É�,0,0,,
2017/6/6,23:00:00,13,���k��,1.9,5.1,94.4,0,0,13,���k��,3.5,45,,
2017/6/6,0:00:00,13,���k��,1.4,5.3,96,0,0,12,��,3.1,45,,
2017/6/7,1:00:00,16,�É�,0,2.6,95.6,0,0,6,�쓌,3.5,25,,
2017/6/7,2:00:00,12,��,1,2.2,95.6,0,0,11,���쐼,2.3,43,,
2017/6/7,3:00:00,16,�É�,0,1.2,96.1,0,0,12,��,1.3,16,,
2017/6/7,4:00:00,16,�É�,0,2.4,97.1,0,0,13,���k��,2.1,39,,
2017/6/7,5:00:00,12,��,1.2,6,98.7,0,0.08,12,��,3,12,,
2017/6/7,6:00:00,16,�É�,0,9,99.2,0,0.24,12,��,2.2,3,,
2017/6/7,7:00:00,16,�É�,0,13.5,73.2,0,0.37,11,���쐼,1.9,11,,
2017/6/7,8:00:00,4,��,0.8,17.2,47.2,0,0.58,5,���쓌,2.4,58,,
2017/6/7,9:00:00,6,�쓌,2.8,14.5,57.4,0,0.66,7,��쓌,3.8,59,,
2017/6/7,10:00:00,6,�쓌,2.7,14.6,57.4,0,0.72,6,�쓌,4.4,55,,
2017/6/7,11:00:00,6,�쓌,2.7,14.6,57.9,0,0.71,6,�쓌,4.4,59,,
2017/6/7,12:00:00,7,��쓌,1.9,14.7,65.2,0,0.63,6,�쓌,4.1,1,,
2017/6/7,13:00:00,5,���쓌,2.7,16.1,55.5,0,0.99,5,���쓌,4.4,57,,
2017/6/7,14:00:00,4,��,1.8,15.4,56.8,0,0.62,4,��,4.3,0,,
2017/6/7,15:00:00,5,���쓌,2.3,14.2,59.9,0,0.64,5,���쓌,3.3,54,,
2017/6/7,16:00:00,4,��,2.4,12.4,69,0,0.36,4,��,3.4,15,,
2017/6/7,17:00:00,4,��,2.6,11.7,78.9,0,0.19,4,��,3.9,46,,
2017/6/7,18:00:00,3,���k��,2.9,11,83.1,0,0.07,3,���k��,4,59,,
2017/6/7,19:00:00,5,���쓌,2.2,11.4,92.2,0,0.02,3,���k��,4.2,6,,
2017/6/7,20:00:00,5,���쓌,2.5,10.9,93.2,0,0,5,���쓌,4.2,21,,
2017/6/7,21:00:00,4,��,2.1,10.9,94.7,0,0,7,��쓌,3.6,3,,
2017/6/7,22:00:00,4,��,1.8,10.8,96.1,0,0,5,���쓌,3.6,22,,
2017/6/7,23:00:00,4,��,2.4,10.8,96.7,0,0,2,�k��,3.9,15,,
2017/6/7,0:00:00,4,��,2.3,10.4,96.9,0,0,4,��,4.3,48,,
2017/6/8,1:00:00,2,�k��,1.9,10.3,97.2,0,0,1,�k�k��,3.3,44,,
2017/6/8,2:00:00,16,�É�,0,10.6,97.6,0,0,1,�k�k��,2.9,9,,
2017/6/8,3:00:00,16,�É�,0,10.7,97.9,0,0,14,�k��,1.4,24,,
2017/6/8,4:00:00,3,���k��,1.1,10.4,97.7,0,0,4,��,2.4,43,,
2017/6/8,5:00:00,7,��쓌,2,12,98.3,0,0.01,7,��쓌,4.3,55,,
2017/6/8,6:00:00,7,��쓌,3.1,11.3,97.1,1.5,0.04,8,��,7.7,40,,
2017/6/8,7:00:00,8,��,3.6,11.1,95,1,0.06,8,��,8.6,35,,
2017/6/8,8:00:00,7,��쓌,3,11.6,96.7,3,0.05,8,��,7.7,0,,
2017/6/8,9:00:00,9,��쐼,4.3,11.9,96.3,0,0.18,8,��,10.8,41,,
2017/6/8,10:00:00,8,��,6.5,13.1,92.8,0,0.28,9,��쐼,11.4,37,,
2017/6/8,11:00:00,9,��쐼,3.8,12.6,86.5,0,0.4,9,��쐼,12,19,,
2017/6/8,12:00:00,9,��쐼,4.7,13.8,93.5,1,0.23,10,�쐼,9.7,49,,
2017/6/8,13:00:00,9,��쐼,6.2,14.3,82.6,0,0.81,9,��쐼,13.5,42,,
2017/6/8,14:00:00,9,��쐼,6.1,15.2,84.4,0,0.67,8,��,12.5,2,,
2017/6/8,15:00:00,7,��쓌,4.7,13.1,90.8,0,0.36,9,��쐼,11.4,4,,
2017/6/8,16:00:00,8,��,3.6,14,90.9,0,0.29,7,��쓌,9.1,8,,
2017/6/8,17:00:00,7,��쓌,2.7,11.4,83.1,0,0.26,9,��쐼,8.2,19,,
2017/6/8,18:00:00,10,�쐼,3.2,15.9,91.4,0,0.16,8,��,8.5,17,,
2017/6/8,19:00:00,10,�쐼,3.6,15.9,79.9,0,0.02,10,�쐼,6.7,49,,
2017/6/8,20:00:00,11,���쐼,5.6,16.3,72.7,0,0,9,��쐼,10.4,46,,
2017/6/8,21:00:00,11,���쐼,4,15.9,74.9,0,0,11,���쐼,9.8,57,,
2017/6/8,22:00:00,11,���쐼,2.8,14.8,71.4,0,0,10,�쐼,9.1,12,,
2017/6/8,23:00:00,11,���쐼,3.5,15.2,70.6,0,0,12,��,7,38,,
2017/6/8,0:00:00,10,�쐼,3.9,15.4,71.2,0,0,11,���쐼,7.1,4,,
2017/6/9,1:00:00,10,�쐼,4.5,14.5,72.9,0,0,10,�쐼,7.5,46,,
2017/6/9,2:00:00,9,��쐼,4,13.8,73.9,0,0,11,���쐼,6.6,29,,
2017/6/9,3:00:00,9,��쐼,2.5,13.4,78.8,0,0,9,��쐼,6.3,40,,
2017/6/9,4:00:00,9,��쐼,2.5,12.3,80.1,0,0,10,�쐼,4.6,24,,
2017/6/9,5:00:00,9,��쐼,3.3,13.9,77.1,0,0.08,9,��쐼,5.9,26,,
2017/6/9,6:00:00,7,��쓌,3,13.8,67.4,0,0.27,8,��,7.4,24,,
2017/6/9,7:00:00,7,��쓌,3,17.9,57.4,0,0.48,8,��,5.5,58,,
2017/6/9,8:00:00,7,��쓌,4.2,15.8,58.1,0,0.67,8,��,11.2,39,,
2017/6/9,9:00:00,6,�쓌,2.3,20.5,49.5,0,0.83,7,��쓌,6.3,10,,
2017/6/9,10:00:00,5,���쓌,2.5,22.8,42.9,0,0.97,7,��쓌,4.5,15,,
2017/6/9,11:00:00,4,��,2.2,24,33.8,0,1.08,5,���쓌,4.2,59,,
2017/6/9,12:00:00,2,�k��,2.2,24.5,35.5,0,1.09,2,�k��,4.9,57,,
2017/6/9,13:00:00,1,�k�k��,1.1,24,33.7,0,1.06,5,���쓌,4.8,17,,
2017/6/9,14:00:00,11,���쐼,6.3,24.5,35.6,0,0.96,12,��,11.4,40,,
2017/6/9,15:00:00,11,���쐼,6.6,23.9,36.4,0,0.81,13,���k��,11.7,15,,
2017/6/9,16:00:00,10,�쐼,7.6,22.5,42.7,0,0.58,11,���쐼,12,27,,
2017/6/9,17:00:00,10,�쐼,6.9,20.1,46.4,0,0.37,11,���쐼,12.2,0,,
2017/6/9,18:00:00,10,�쐼,4.7,19,52.4,0,0.08,10,�쐼,10.1,10,,
2017/6/9,19:00:00,9,��쐼,3.3,14.5,67.1,0,0.04,10,�쐼,7.1,4,,
2017/6/9,20:00:00,9,��쐼,3.9,17.4,68.1,0,0,9,��쐼,8.7,46,,
2017/6/9,21:00:00,10,�쐼,3,16.5,65.7,0,0,9,��쐼,7.4,19,,
2017/6/9,22:00:00,10,�쐼,2,12.2,76.5,0,0,8,��,5.9,15,,
2017/6/9,23:00:00,8,��,1.6,11.3,83,0,0,7,��쓌,5,24,,
2017/6/9,0:00:00,9,��쐼,2.5,12.5,79.9,0,0,8,��,7.3,28,,
2017/6/10,1:00:00,7,��쓌,2.5,10.9,81.2,0,0,7,��쓌,5.4,48,,
2017/6/10,2:00:00,16,�É�,0.1,10.5,86.3,0,0,11,���쐼,5,7,,
2017/6/10,3:00:00,16,�É�,0,9.8,89.3,0,0,9,��쐼,3.8,17,,
2017/6/10,4:00:00,4,��,1.1,9.3,90.4,0,0,1,�k�k��,3.4,6,,
2017/6/10,5:00:00,2,�k��,1.3,9.9,92.2,0,0.02,5,���쓌,2.7,47,,
2017/6/10,6:00:00,16,�É�,0,12.1,95.1,0,0.08,1,�k�k��,2.9,23,,
2017/6/10,7:00:00,4,��,3.8,10.3,84.5,0,0.14,4,��,6.4,44,,
2017/6/10,8:00:00,3,���k��,1.4,12.2,85.7,0,0.21,4,��,4.2,0,,
2017/6/10,9:00:00,4,��,3.4,12.5,76.1,0,0.32,4,��,5.2,57,,
2017/6/10,10:00:00,6,�쓌,2.1,13.9,90.1,0,0.24,4,��,6.2,27,,
2017/6/10,11:00:00,7,��쓌,4,12.5,88.2,0,0.28,7,��쓌,9.5,28,,
2017/6/10,12:00:00,6,�쓌,3.5,11.1,86.9,0,0.42,6,�쓌,8.4,11,,
2017/6/10,13:00:00,6,�쓌,2.5,11.4,90.7,0,0.25,6,�쓌,7.8,44,,
2017/6/10,14:00:00,3,���k��,2.1,10,92.4,1,0.1,4,��,7.3,16,,
2017/6/10,15:00:00,3,���k��,2.5,9.8,93.5,2,0.09,4,��,5.9,41,,
2017/6/10,16:00:00,3,���k��,4.1,9.5,95,7,0.04,2,�k��,6.2,59,,
2017/6/10,17:00:00,3,���k��,2.2,10.2,96.8,0,0.06,3,���k��,7,36,,
2017/6/10,18:00:00,1,�k�k��,1.3,10.6,95.2,0.5,0.14,4,��,4.2,12,,
2017/6/10,19:00:00,12,��,1.2,10.8,92.8,0,0.02,11,���쐼,2.5,58,,
2017/6/10,20:00:00,14,�k��,1.8,10.3,92.9,0,0,13,���k��,3.2,55,,
2017/6/10,21:00:00,4,��,3.1,10,94.1,0,0,3,���k��,5.5,46,,
2017/6/10,22:00:00,3,���k��,2.5,10.1,95.8,0,0,3,���k��,5.2,31,,
2017/6/10,23:00:00,3,���k��,1.6,10,95.6,2,0,10,�쐼,5.3,35,,
2017/6/10,0:00:00,2,�k��,1.6,9.7,95.8,0.5,0,9,��쐼,2.7,37,,
2017/6/11,1:00:00,4,��,1.9,9.2,94.9,0,0,4,��,3.5,30,,
2017/6/11,2:00:00,1,�k�k��,1.1,10.1,97,0,0,2,�k��,2.6,24,,
2017/6/11,3:00:00,3,���k��,2.4,9.2,94.3,0,0,2,�k��,6.1,26,,
2017/6/11,4:00:00,4,��,2.8,8.7,94.1,0,0,4,��,4.4,44,,
2017/6/11,5:00:00,5,���쓌,3.7,8.9,94.3,0,0.02,5,���쓌,6.2,57,,
2017/6/11,6:00:00,4,��,2.8,8.8,93.2,0,0.06,4,��,5.2,1,,
2017/6/11,7:00:00,3,���k��,0.8,9.4,92.5,0,0.1,2,�k��,6.5,5,,
2017/6/11,8:00:00,16,�É�,0,10,92.6,0.5,0.12,3,���k��,2.7,6,,
2017/6/11,9:00:00,7,��쓌,1.7,10.1,89.9,0,0.2,6,�쓌,3,56,,
2017/6/11,10:00:00,5,���쓌,3.8,8.6,87.4,0,0.3,5,���쓌,5.7,39,,
2017/6/11,11:00:00,3,���k��,4.4,8.9,90.2,0,0.26,2,�k��,6.8,43,,
2017/6/11,12:00:00,4,��,2.3,8.3,91.7,0,0.18,3,���k��,8,5,,
2017/6/11,13:00:00,8,��,0.3,8.8,89.6,0,0.22,5,���쓌,3.1,0,,
2017/6/11,14:00:00,13,���k��,1.7,11.4,80.2,0,0.48,12,��,4.2,22,,
2017/6/11,15:00:00,15,�k�k��,0.8,14.1,63.9,0,0.77,11,���쐼,3.8,18,,
2017/6/11,16:00:00,4,��,1.9,9.8,81.8,0,0.19,5,���쓌,4.2,21,,
2017/6/11,17:00:00,6,�쓌,1.3,8.5,86.3,0,0.07,4,��,4.7,15,,
2017/6/11,18:00:00,10,�쐼,0.7,8.6,87.5,0,0.07,10,�쐼,1.9,34,,
2017/6/11,19:00:00,12,��,2,8.6,89.7,0,0.01,12,��,3,57,,
2017/6/11,20:00:00,16,�k,2.7,8.6,84.3,0,0,1,�k�k��,5.2,53,,
2017/6/11,21:00:00,15,�k�k��,2.6,8,80.9,0,0,15,�k�k��,5.1,57,,
2017/6/11,22:00:00,14,�k��,1.7,7.8,82.5,0,0,1,�k�k��,5.2,40,,
2017/6/11,23:00:00,14,�k��,1.4,7.5,81.1,0,0,15,�k�k��,3.9,40,,
2017/6/11,0:00:00,14,�k��,2.3,7.1,82.8,0,0,14,�k��,3.8,36,,
2017/6/12,1:00:00,14,�k��,1.5,6.5,83.2,0,0,4,��,4.4,29,,
2017/6/12,2:00:00,14,�k��,2.3,5.6,81.6,0,0,13,���k��,5.1,19,,
2017/6/12,3:00:00,14,�k��,1.4,4.9,86.2,0,0,14,�k��,3.5,16,,
2017/6/12,4:00:00,16,�É�,0,5.7,90.2,0,0,13,���k��,2.6,19,,
2017/6/12,5:00:00,14,�k��,1.7,6.9,85.9,0,0.04,15,�k�k��,3.3,55,,
2017/6/12,6:00:00,15,�k�k��,2.1,8.2,77.7,0,0.15,15,�k�k��,4.7,33,,
2017/6/12,7:00:00,16,�k,1.8,9.5,73.5,0,0.26,15,�k�k��,6.1,25,,
2017/6/12,8:00:00,1,�k�k��,4.2,10.3,62.7,0,0.41,1,�k�k��,7.4,58,,
2017/6/12,9:00:00,15,�k�k��,3.7,12.7,57.8,0,0.8,14,�k��,7.2,44,,
2017/6/12,10:00:00,15,�k�k��,2.9,13.6,49,0,0.99,14,�k��,8.3,5,,
2017/6/12,11:00:00,2,�k��,3.8,15.9,40.8,0,1.07,1,�k�k��,7.1,47,,
2017/6/12,12:00:00,7,��쓌,2.3,14.7,50.2,0,1.13,2,�k��,6.5,0,,
2017/6/12,13:00:00,7,��쓌,3.4,13.9,50.6,0,1.08,6,�쓌,6.1,45,,
2017/6/12,14:00:00,8,��,4.2,11.7,58.7,0,0.97,7,��쓌,7.2,19,,
2017/6/12,15:00:00,7,��쓌,3.4,12.6,55.5,0,0.83,7,��쓌,8.1,22,,
2017/6/12,16:00:00,8,��,3.4,11.2,60.8,0,0.65,7,��쓌,6.9,48,,
2017/6/12,17:00:00,7,��쓌,2.9,10.2,66,0,0.47,7,��쓌,5.6,20,,
2017/6/12,18:00:00,8,��,1.4,9,69.2,0,0.26,7,��쓌,3.9,1,,
2017/6/12,19:00:00,16,�É�,0,5.6,75.2,0,0.06,8,��,2.3,7,,
2017/6/12,20:00:00,12,��,0.7,3.2,83.5,0,0,12,��,2,59,,
2017/6/12,21:00:00,13,���k��,2.1,4,91.4,0,0,12,��,2.7,54,,
2017/6/12,22:00:00,13,���k��,2.1,4.5,94.8,0,0,12,��,2.8,33,,
2017/6/12,23:00:00,13,���k��,0.5,3.4,94.7,0,0,13,���k��,3,5,,
2017/6/12,0:00:00,12,��,0.4,3.3,95.3,0,0,14,�k��,3.4,23,,
2017/6/13,1:00:00,13,���k��,2.3,3.9,96,0,0,13,���k��,3.6,53,,
2017/6/13,2:00:00,13,���k��,1.1,2.7,95.9,0,0,12,��,2.6,13,,
2017/6/13,3:00:00,12,��,1.7,1.9,95.8,0,0,12,��,3.5,7,,
2017/6/13,4:00:00,12,��,2,1.3,96.1,0,0,12,��,3,25,,
2017/6/13,5:00:00,12,��,2,3.5,97.4,0,0.09,12,��,2.7,41,,
2017/6/13,6:00:00,13,���k��,0.5,7.9,82.9,0,0.29,12,��,2.6,3,,
2017/6/13,7:00:00,8,��,1,11.7,59.9,0,0.49,9,��쐼,2.7,56,,
2017/6/13,8:00:00,6,�쓌,2.1,13.4,54.1,0,0.67,8,��,3.4,44,,
2017/6/13,9:00:00,7,��쓌,2.5,13.3,51.4,0,0.85,7,��쓌,4.1,53,,
2017/6/13,10:00:00,6,�쓌,2.7,13.3,54.8,0,0.99,7,��쓌,5.4,16,,
2017/6/13,11:00:00,6,�쓌,2.5,13.7,55,0,1.09,6,�쓌,4.7,27,,
2017/6/13,12:00:00,6,�쓌,2.9,13.4,55.9,0,1.12,6,�쓌,4.4,52,,
2017/6/13,13:00:00,5,���쓌,2.5,14.6,59.2,0,1.07,5,���쓌,4.7,35,,
2017/6/13,14:00:00,5,���쓌,2.7,12.3,65.2,0,0.96,5,���쓌,4.5,46,,
2017/6/13,15:00:00,4,��,2.6,13.2,71.3,0,0.8,4,��,4.6,16,,
2017/6/13,16:00:00,4,��,2.8,11.7,72.9,0,0.62,5,���쓌,4.6,13,,
2017/6/13,17:00:00,4,��,2.1,11.6,73.1,0,0.45,4,��,3.7,12,,
2017/6/13,18:00:00,4,��,2.8,9.8,76,0,0.24,5,���쓌,3.8,56,,
2017/6/13,19:00:00,4,��,1.9,8.2,89,0,0.06,4,��,4.3,8,,
2017/6/13,20:00:00,3,���k��,2.1,7.8,93.8,0,0,3,���k��,3.6,58,,
2017/6/13,21:00:00,3,���k��,0.8,7.6,95.1,0,0,3,���k��,3.6,2,,
2017/6/13,22:00:00,1,�k�k��,0.8,7.3,95.6,0,0,3,���k��,2.5,20,,
2017/6/13,23:00:00,16,�É�,0,7.4,96.3,0,0,2,�k��,2,22,,
2017/6/13,0:00:00,16,�É�,0,7.5,96.6,0,0,3,���k��,1.5,5,,
2017/6/14,1:00:00,16,�É�,0,7.6,96.6,0,0,13,���k��,1,19,,
2017/6/14,2:00:00,16,�É�,0,6.9,96,0,0,16,�É�,0,0,,
2017/6/14,3:00:00,16,�É�,0,5.2,93.1,0,0,16,�k,1.6,45,,
2017/6/14,4:00:00,16,�É�,0,6.1,95,0,0,14,�k��,1.6,45,,
2017/6/14,5:00:00,13,���k��,1.7,6.8,97,0,0.08,12,��,2.7,54,,
2017/6/14,6:00:00,16,�É�,0.1,9.8,81.7,0,0.29,13,���k��,3.3,11,,
2017/6/14,7:00:00,16,�É�,0.2,12.9,58.7,0,0.43,5,���쓌,1.5,57,,
2017/6/14,8:00:00,5,���쓌,0.8,14.9,62.6,0,0.46,5,���쓌,2.4,48,,
2017/6/14,9:00:00,7,��쓌,1.1,10.9,75.7,0,0.2,8,��,3.1,41,,
2017/6/14,10:00:00,7,��쓌,0.3,16.9,70.5,0,0.52,8,��,2.3,57,,
2017/6/14,11:00:00,6,�쓌,2,17.4,51.1,0,0.95,6,�쓌,4,39,,
2017/6/14,12:00:00,8,��,3.6,20.1,52.3,0,1.11,8,��,5.8,50,,
2017/6/14,13:00:00,7,��쓌,4.1,20.5,44.4,0,1.06,8,��,7.6,32,,
2017/6/14,14:00:00,8,��,4.7,19.4,44.9,0,0.95,7,��쓌,7.6,58,,
2017/6/14,15:00:00,8,��,4,19.4,38.5,0,0.81,8,��,8.2,57,,
2017/6/14,16:00:00,8,��,3.7,16.8,45,0,0.64,8,��,8.1,3,,
2017/6/14,17:00:00,8,��,4.1,15.4,50,0,0.46,7,��쓌,8.8,36,,
2017/6/14,18:00:00,8,��,3.8,14.2,56.5,0,0.25,9,��쐼,8.2,30,,
2017/6/14,19:00:00,8,��,3,12.9,64.5,0,0.06,9,��쐼,7.8,5,,
2017/6/14,20:00:00,9,��쐼,3,12,76.4,0,0,9,��쐼,5.4,53,,
2017/6/14,21:00:00,16,�É�,0,8,79,0,0,9,��쐼,4,1,,
2017/6/14,22:00:00,16,�É�,0,7.5,83.3,0,0,1,�k�k��,2.1,5,,
2017/6/14,23:00:00,16,�É�,0.1,5.4,88.9,0,0,14,�k��,2.7,40,,
2017/6/14,0:00:00,16,�É�,0,7,92.1,0,0,14,�k��,2.5,8,,
2017/6/15,1:00:00,13,���k��,1,4.8,92.3,0,0,16,�k,3.2,14,,
2017/6/15,2:00:00,16,�É�,0.1,3.8,91.7,0,0,13,���k��,3.4,28,,
2017/6/15,3:00:00,12,��,1,6.5,95.4,0,0,13,���k��,3.1,9,,
2017/6/15,4:00:00,16,�É�,0,7.1,96.7,0,0,11,���쐼,2.5,4,,
2017/6/15,5:00:00,13,���k��,1.6,8.4,98,0,0.05,14,�k��,2.8,41,,
2017/6/15,6:00:00,16,�É�,0,9.2,98,0,0.05,14,�k��,2.7,21,,
2017/6/15,7:00:00,16,�É�,0,10.7,96.3,0,0.12,14,�k��,1.7,12,,
2017/6/15,8:00:00,6,�쓌,1.1,10.7,89.4,0.5,0.11,6,�쓌,2.8,56,,
2017/6/15,9:00:00,3,���k��,1.3,11.2,91.7,0,0.2,4,��,2.9,10,,
2017/6/15,10:00:00,1,�k�k��,1.8,12.4,87.6,0,0.27,1,�k�k��,2.9,51,,
2017/6/15,11:00:00,5,���쓌,2.7,11.4,79.9,0,0.29,5,���쓌,3.7,59,,
2017/6/15,12:00:00,5,���쓌,1.6,10.9,87.9,0,0.18,5,���쓌,3.6,27,,
2017/6/15,13:00:00,4,��,1.4,11.6,89.5,0.5,0.16,4,��,2.5,55,,
2017/6/15,14:00:00,5,���쓌,3,11,85.4,0,0.22,5,���쓌,4.2,49,,
2017/6/15,15:00:00,3,���k��,2.1,11,91.7,0,0.15,4,��,4.3,8,,
2017/6/15,16:00:00,3,���k��,2.6,10.4,91.6,0,0.1,4,��,4,31,,
2017/6/15,17:00:00,4,��,1.3,10.6,94.4,0,0.06,3,���k��,3.2,6,,
2017/6/15,18:00:00,3,���k��,1.9,10.8,95,0,0.03,3,���k��,3.4,55,,
2017/6/15,19:00:00,4,��,2.2,10.4,95.4,0.5,0.01,3,���k��,4.2,27,,
2017/6/15,20:00:00,3,���k��,2,10.5,96.6,0,0,3,���k��,3.7,10,,
2017/6/15,21:00:00,4,��,1.7,10.5,96.8,0,0,3,���k��,3.4,3,,
2017/6/15,22:00:00,4,��,1.6,10.7,97.1,0,0,3,���k��,3.2,41,,
2017/6/15,23:00:00,3,���k��,2.3,10.7,97.3,0,0,3,���k��,4,19,,
2017/6/15,0:00:00,3,���k��,1.5,10.6,97.4,0,0,3,���k��,4.2,45,,
2017/6/16,1:00:00,4,��,2,10.2,97.2,0,0,3,���k��,2.9,43,,
2017/6/16,2:00:00,2,�k��,1.8,10.1,96.9,0,0,2,�k��,3.8,59,,
2017/6/16,3:00:00,3,���k��,3.2,10.1,97,0,0,3,���k��,5.6,56,,
2017/6/16,4:00:00,2,�k��,1.2,10.3,97.5,0,0,3,���k��,4.7,2,,
2017/6/16,5:00:00,3,���k��,2.3,10.8,97.8,0,0.04,2,�k��,4.1,58,,
2017/6/16,6:00:00,2,�k��,1.9,11.2,96.9,0,0.12,1,�k�k��,3.8,18,,
2017/6/16,7:00:00,1,�k�k��,1.5,11.8,94.1,0,0.14,2,�k��,2.9,11,,
2017/6/16,8:00:00,16,�k,0.4,13.5,82.6,0,0.33,1,�k�k��,3,33,,
2017/6/16,9:00:00,4,��,1.5,16.1,65.6,0,0.72,5,���쓌,3.2,41,,
2017/6/16,10:00:00,5,���쓌,2.5,17.5,63.3,0,0.91,6,�쓌,4.4,59,,
2017/6/16,11:00:00,5,���쓌,2.3,18.1,65,0,0.92,5,���쓌,4.4,3,,
2017/6/16,12:00:00,6,�쓌,3.6,16.7,64.6,0,1.11,5,���쓌,5.8,36,,
2017/6/16,13:00:00,7,��쓌,3.6,15.1,70.2,0,1.04,6,�쓌,5.9,26,,
2017/6/16,14:00:00,7,��쓌,2.5,16.3,71.4,0,0.94,7,��쓌,5.6,20,,
2017/6/16,15:00:00,9,��쐼,2.8,15.2,70.4,0,0.6,8,��,5.1,14,,
2017/6/16,16:00:00,9,��쐼,1.8,14.8,76.1,0,0.27,9,��쐼,6,22,,
2017/6/16,17:00:00,10,�쐼,1.6,15.1,71.8,0,0.15,9,��쐼,4.2,37,,
2017/6/16,18:00:00,9,��쐼,1.6,13.4,77.4,0,0.07,8,��,4.2,12,,
2017/6/16,19:00:00,4,��,3.1,11,80.8,0,0.03,3,���k��,5,54,,
2017/6/16,20:00:00,3,���k��,2.7,9.6,90.1,0,0,3,���k��,4.1,51,,
2017/6/16,21:00:00,16,�É�,0.2,9.5,93,0,0,4,��,3.3,0,,
2017/6/16,22:00:00,16,�É�,0.2,9.1,94.1,0,0,2,�k��,2.5,8,,
2017/6/16,23:00:00,16,�É�,0,8,93.4,0,0,16,�É�,0.2,22,,
2017/6/16,0:00:00,16,�É�,0,7.8,93.3,0,0,3,���k��,2.1,30,,
2017/6/17,1:00:00,16,�É�,0,8.8,95.5,0,0,2,�k��,1.6,10,,
2017/6/17,2:00:00,11,���쐼,2,8.8,96.2,0,0,12,��,2.5,50,,
2017/6/17,3:00:00,12,��,2.2,8.9,96.3,0,0,11,���쐼,6.8,18,,
2017/6/17,4:00:00,16,�k,2.1,11.6,98.2,0,0,13,���k��,5.5,15,,
2017/6/17,5:00:00,3,���k��,1.7,10.7,96.3,0,0.08,1,�k�k��,3.4,1,,
2017/6/17,6:00:00,3,���k��,3.7,11.7,88.1,0,0.16,3,���k��,5.9,54,,
2017/6/17,7:00:00,2,�k��,1.6,12.9,85.1,0,0.31,2,�k��,5.1,2,,
2017/6/17,8:00:00,16,�É�,0,15.2,67.3,0,0.5,4,��,2.9,23,,
2017/6/17,9:00:00,5,���쓌,1.6,16.5,62.2,0,0.74,5,���쓌,4,26,,
2017/6/17,10:00:00,9,��쐼,2.1,18.8,61,0,0.96,8,��,4.3,46,,
2017/6/17,11:00:00,7,��쓌,4.2,17,60.8,0,1.05,7,��쓌,5.9,49,,